Location: Eschertshofen
(49.3064°N, 11.5756°E)
Time: 22:53:15
(UTC+00:00)

SL-08 RB Rocket - Pass Details

Date: 18 September 2020
Orbit: 646 x 685 km, 97.8° (Epoch: 21 October)

Event Time Altitude Azimuth Distance (km) Brightness Sun altitude
Rises 17:54:49 0° 141° (SE) 3,018 6.6 -6.5°
Reaches altitude 10° 17:57:10 10° 133° (SE) 2,103 5.8 -6.9°
Maximum altitude 18:01:22 37° 67° (ENE) 1,050 4.3 -7.6°
Drops below altitude 10° 18:05:33 10° 1° (N) 2,095 6.4 -8.3°
Sets 18:07:54 0° 353° (N) 3,006 7.3 -8.6°
